Starlink 3369

operational
NORAD ID: 51142 Int'l Des: 2022-005 Owner: SPXS Country: US Constellation: starlink
LEOCIRCULAR

About Starlink 3369

Description loading...

Live Position

Loading 3D Globe...

Upcoming Passes

Altitude History

Altitude vs Time

uPlot chart will show altitude changes over time

Two-Line Element Set

1 51142U 22005AQ 26063.07538121 .00044196 00000-0 21165-2 0 9997
2 51142 53.2110 307.4452 0003812 156.3240 203.7932 15.18537267228123
Epoch: Mar 4, 2026 • Age: 22 hours

Current Status

Altitude 522.4 km
Velocity 7.60 km/s
Sub-Earth Point -31.91°S, 140.86°E
Launch Date Jan 19, 2022
Age 4.1 years
Type internet

Technical Details

Classification Payload
Mass 297.00 kg
Dry Mass 275.00 kg
Total Mass 297.00 kg
Length 0.20 m
Diameter 2.80 m
Span 9.00 m
Shape Box + pan
Manufacturer SPXS
Bus Type Starlink
Phase Status In Orbit
Owner/State SPXS/US

Large Constellations

Loading constellations...